Погода в Патне

Индия     25°36′20″N   85°06′42″E
темп.,
°C
ветер,
м/с
пор.,
м/с
влажн.,
%
обл.,
%
осадки,
мм/ч
давл.,
гПа
погр.,
м
26 января, вт
вт2623:30+13зсз34510 0.0 101629
02:30+11сз33580 0.0 101529
05:30+9зсз23690 0.0 101527
08:30+14з22540 0.0 1018194
11:30+21зсз23360 0.0 1017875
14:30+24зсз34270 0.0 10131333
17:30+18зсз23390 0.0 101342
20:30+14сз33500 0.0 101528
27 января, ср
ср2723:30+12ссз34520 0.0 101637
02:30+10зсз23550 0.0 101426
05:30+8з22610 0.0 101527
08:30+13з22480 0.0 1018184
11:30+21сз22320 0.0 1017729
14:30+23зсз34270 0.0 10141139
17:30+17зсз23400 0.0 101336
20:30+14сз23440 0.0 101526
28 января, чт
чт2823:30+12ссз23470 0.0 101626
02:30+10сз12570 0.0 101525
05:30+8зсз11690 0.0 101624
08:30+14зсз11490 0.0 1018129
11:30+22вюв12320 0.0 1017729
14:30+25ссв11240 0.0 10141099
17:30+18ссз11350 0.0 101326
20:30+16сз12400 0.0 101524
29 января, пт
пт2923:30+14ссв23430 0.0 101626
02:30+15з233975 0.0 101445
05:30+14с234177 0.0 101564
08:30+19ююв113764 0.0 1017140
11:30+24зсз433347 0.0 1017876
14:30+26сз113433 0.0 10141009
17:30+20зсз23553 0.0 101239
20:30+17зсз34560 0.0 101447
30 января, сб
сб3023:30+15сз34580 0.0 101549
02:30+12зсз34610 0.0 101441
05:30+10з33640 0.0 101432
08:30+15з35520 0.0 1017241
11:30+21з34340 0.0 1016800
14:30+24з45260 0.0 10131357
17:30+17зсз34410 0.0 101364
20:30+13сз34460 0.0 101633